Change the Weather History Date:

Wednesday, October 12, 2011

  Actual Average Record
Temperature  
Mean Temperature 46 °F 45 °F  
Max Temperature 58 °F 58 °F 80 °F (1950)
Min Temperature 33 °F 31 °F 12 °F (2009)
Degree Days  
Heating Degree Days 19    
Month to date heating degree days 164  
Since 1 July heating degree days 390  
Cooling Degree Days 0    
Month to date cooling degree days 1  
Year to date cooling degree days 140  
Moisture  
Dew Point 27 °F    
Average Humidity 49    
Maximum Humidity 70    
Minimum Humidity 28    
Precipitation  
Precipitation 0.00 in 0.03 in 0.23 in (2000)
Month to date precipitation 0.41 0.34  
Year to date precipitation 7.91 9.51  
Snow  
Snow 0.00 in - - ()
Snow Depth 0.00 in    
Sea Level Pressure  
Sea Level Pressure 30.11 in    
Wind  
Wind Speed 10 mph (SSW)    
Max Wind Speed 22 mph    
Max Gust Speed 26 mph    
Visibility 10 miles    
Events      
T = Trace of Precipitation, MM = Missing Value Source: NWS Daily Summary

Daily Weather History Graph

Daily Weather History Graph

Search for Another Location

Airport or City:

Trip Planner

Search our weather history database for the weather conditions in past years. The results will help you decide how hot, cold, wet, or windy it might be!

Date:

Astronomy

Oct. 12, 2011 Rise Set
Actual Time 7:42 AM MDT 6:50 PM MDT
Civil Twilight 7:12 AM MDT 7:20 PM MDT
Nautical Twilight 6:38 AM MDT 7:54 PM MDT
Astronomical Twilight 6:04 AM MDT 8:28 PM MDT
Moon 6:48 PM MDT (10/12) 8:25 AM MDT (10/12)
Length of Visible Light 12h 07m
Length of Day
11h 08m
Full, 100% of the Moon is Illuminated
Oct 12
Full
Oct 19
Last Quarter
Oct 26
New
Nov 2
First Quarter
Nov 10
Full

Hourly Weather History & Observations

Time (MDT) Temp. Windchill Dew Point Humidity Pressure Visibility Wind Dir Wind Speed Gust Speed Precip Events Conditions
12:53 AM 39.9 °F 32.9 °F 28.0 °F 63% 30.05 in 10.0 mi South 11.5 mph - N/A   Mostly Cloudy
1:53 AM 37.0 °F 30.4 °F 27.0 °F 67% 30.09 in 10.0 mi South 9.2 mph - N/A   Clear
2:53 AM 37.9 °F 32.1 °F 27.0 °F 65% 30.10 in 10.0 mi South 8.1 mph - N/A   Clear
3:53 AM 37.0 °F 29.3 °F 28.0 °F 70% 30.10 in 10.0 mi SSW 11.5 mph - N/A   Partly Cloudy
4:53 AM 39.0 °F 31.4 °F 28.9 °F 67% 30.12 in 10.0 mi SW 12.7 mph - N/A   Scattered Clouds
5:53 AM 37.9 °F 30.0 °F 28.0 °F 68% 30.14 in 10.0 mi SSW 12.7 mph - N/A   Scattered Clouds
6:53 AM 37.9 °F 33.5 °F 27.0 °F 65% 30.15 in 10.0 mi South 5.8 mph - N/A   Mostly Cloudy
8:53 AM 39.0 °F 34.0 °F 28.0 °F 65% 30.17 in 10.0 mi SSW 6.9 mph - N/A   Overcast
9:53 AM 45.0 °F 39.3 °F 28.9 °F 53% 30.16 in 10.0 mi SW 11.5 mph - N/A   Clear
10:53 AM 48.9 °F - 28.0 °F 44% 30.17 in 10.0 mi SSW 13.8 mph - N/A   Clear
11:53 AM 50.0 °F - 28.0 °F 43% 30.14 in 10.0 mi SW 12.7 mph 20.7 mph N/A   Clear
12:53 PM 52.0 °F - 27.0 °F 38% 30.12 in 10.0 mi WSW 16.1 mph 25.3 mph N/A   Scattered Clouds
1:53 PM 54.0 °F - 26.1 °F 34% 30.10 in 10.0 mi WSW 15.0 mph 24.2 mph N/A   Clear
3:53 PM 57.0 °F - 24.1 °F 28% 30.06 in 10.0 mi SW 15.0 mph 23.0 mph N/A   Clear
4:53 PM 55.9 °F - 24.1 °F 29% 30.04 in 10.0 mi WSW 16.1 mph 21.9 mph N/A   Clear
5:53 PM 53.1 °F - 26.1 °F 35% 30.06 in 9.0 mi WSW 11.5 mph - N/A   Clear
6:53 PM 46.0 °F 41.4 °F 27.0 °F 47% 30.08 in 10.0 mi SW 9.2 mph - N/A   Clear
8:53 PM 39.9 °F 36.7 °F 25.0 °F 55% 30.08 in 10.0 mi SE 4.6 mph - N/A   Clear
9:53 PM 37.0 °F 31.0 °F 25.0 °F 62% 30.09 in 10.0 mi South 8.1 mph - N/A   Clear
10:53 PM 37.0 °F 31.0 °F 26.1 °F 65% 30.09 in 10.0 mi SW 8.1 mph - N/A   Clear